When you browse on this site, cookies collect data to enhance your experience and personalize the content and advertising you see.
Visit our Privacy Policy to learn more. By continuing to use the site, you agree to this use of cookies and data.

Hourly Weather Kochki

Today, 7 July, Tuesday

Time Temperature Precipitation Wind Pressure Humidity
00:00 +20°C° 0.4 mm 1 mps 742 mmHg 97%
01:00 +19°C° 0.4 mm 2 mps 742 mmHg 97%
02:00 +19°C° 0.4 mm 2 mps 742 mmHg 98%
03:00 +19°C° 0.1 mm 2 mps 742 mmHg 97%
04:00 +19°C° 0.1 mm 2 mps 742 mmHg 97%
05:00 +20°C° 0.1 mm 2 mps 742 mmHg 96%
06:00 +21°C° 0.1 mm 2 mps 742 mmHg 92%
07:00 +23°C° 0.1 mm 2 mps 742 mmHg 88%
08:00 +24°C° 0.1 mm 2 mps 742 mmHg 83%
09:00 +24°C° 0.8 mm 2 mps 742 mmHg 84%
10:00 +24°C° 0.8 mm 2 mps 742 mmHg 85%
11:00 +25°C° 0.8 mm 2 mps 742 mmHg 86%
12:00 +25°C° 1.4 mm 2 mps 742 mmHg 86%
13:00 +25°C° 1.4 mm 2 mps 742 mmHg 86%
14:00 +25°C° 1.4 mm 2 mps 742 mmHg 86%
15:00 +24°C° 1.4 mm 2 mps 741 mmHg 87%
16:00 +23°C° 1.4 mm 2 mps 741 mmHg 88%
17:00 +21°C° 1.4 mm 2 mps 741 mmHg 90%
18:00 +20°C° 0.8 mm 2 mps 741 mmHg 92%
19:00 +19°C° 0.8 mm 2 mps 741 mmHg 94%
20:00 +18°C° 0.8 mm 2 mps 741 mmHg 97%
21:00 +17°C° 0 mm 2 mps 741 mmHg 97%
22:00 +16°C° 0 mm 2 mps 741 mmHg 98%
23:00 +16°C° 0 mm 1 mps 741 mmHg 98%

Tomorrow, 8 July, Wednesday

Time Temperature Precipitation Wind Pressure Humidity
00:00 +16°C° 0.2 mm 2 mps 741 mmHg 98%
01:00 +16°C° 0.2 mm 2 mps 740 mmHg 98%
02:00 +16°C° 0.2 mm 2 mps 740 mmHg 98%
03:00 +16°C° 0.3 mm 2 mps 740 mmHg 98%
04:00 +16°C° 0.3 mm 2 mps 739 mmHg 98%
05:00 +16°C° 0.3 mm 2 mps 739 mmHg 99%
06:00 +16°C° 0.4 mm 2 mps 739 mmHg 98%
07:00 +16°C° 0.4 mm 3 mps 739 mmHg 97%
08:00 +16°C° 0.4 mm 3 mps 739 mmHg 96%
09:00 +16°C° 0.2 mm 3 mps 739 mmHg 93%
10:00 +16°C° 0.2 mm 3 mps 740 mmHg 90%
11:00 +16°C° 0.2 mm 3 mps 740 mmHg 88%
12:00 +14°C° 1.7 mm 3 mps 741 mmHg 91%
13:00 +14°C° 1.7 mm 3 mps 741 mmHg 94%
14:00 +13°C° 1.7 mm 3 mps 742 mmHg 97%
15:00 +15°C° 0 mm 2 mps 742 mmHg 94%
16:00 +15°C° 0 mm 2 mps 742 mmHg 91%
17:00 +16°C° 0 mm 2 mps 743 mmHg 88%
18:00 +16°C° 0 mm 2 mps 743 mmHg 89%
19:00 +15°C° 0 mm 1 mps 743 mmHg 91%
20:00 +15°C° 0 mm 1 mps 743 mmHg 93%
21:00 +14°C° 0 mm 1 mps 743 mmHg 94%
22:00 +14°C° 0 mm 1 mps 744 mmHg 95%
23:00 +13°C° 0 mm 1 mps 744 mmHg 96%

Day after tomorrow, 9 July, Thursday

Time Temperature Precipitation Wind Pressure Humidity
00:00 +13°C° 0 mm 1 mps 744 mmHg 96%
01:00 +12°C° 0 mm 1 mps 744 mmHg 96%
02:00 +11°C° 0 mm 0 mps 745 mmHg 96%
03:00 +13°C° 0 mm 1 mps 744 mmHg 94%
04:00 +13°C° 0 mm 1 mps 744 mmHg 92%
05:00 +14°C° 0 mm 1 mps 744 mmHg 91%
06:00 +16°C° 0 mm 1 mps 744 mmHg 82%
07:00 +18°C° 0 mm 1 mps 744 mmHg 74%
08:00 +20°C° 0 mm 1 mps 744 mmHg 65%
09:00 +20°C° 0.4 mm 1 mps 744 mmHg 67%
10:00 +21°C° 0.4 mm 1 mps 744 mmHg 68%
11:00 +20°C° 0.4 mm 2 mps 744 mmHg 70%
12:00 +20°C° 0.4 mm 2 mps 744 mmHg 72%
13:00 +19°C° 0.4 mm 2 mps 744 mmHg 74%
14:00 +19°C° 0.4 mm 3 mps 744 mmHg 76%
15:00 +19°C° 0.3 mm 3 mps 744 mmHg 79%
16:00 +18°C° 0.3 mm 2 mps 744 mmHg 81%
17:00 +17°C° 0.3 mm 2 mps 744 mmHg 84%
18:00 +16°C° 0 mm 2 mps 745 mmHg 85%
19:00 +16°C° 0 mm 2 mps 745 mmHg 87%
20:00 +15°C° 0 mm 2 mps 745 mmHg 88%
21:00 +14°C° 0 mm 2 mps 745 mmHg 90%
22:00 +13°C° 0 mm 2 mps 746 mmHg 91%
23:00 +12°C° 0 mm 2 mps 746 mmHg 93%

10 July, Friday

Time Temperature Precipitation Wind Pressure Humidity
00:00 +10°C° 0 mm 2 mps 746 mmHg 94%
01:00 +10°C° 0 mm 2 mps 747 mmHg 95%
02:00 +9°C° 0 mm 2 mps 747 mmHg 96%
03:00 +10°C° 0 mm 2 mps 747 mmHg 95%
04:00 +10°C° 0 mm 2 mps 748 mmHg 94%
05:00 +12°C° 0 mm 2 mps 748 mmHg 92%
06:00 +13°C° 0 mm 3 mps 748 mmHg 83%
07:00 +16°C° 0 mm 3 mps 749 mmHg 74%
08:00 +17°C° 0 mm 3 mps 749 mmHg 65%
09:00 +18°C° 0 mm 3 mps 749 mmHg 59%
10:00 +19°C° 0 mm 3 mps 749 mmHg 53%
11:00 +20°C° 0 mm 4 mps 749 mmHg 46%
12:00 +21°C° 0 mm 4 mps 749 mmHg 43%
13:00 +22°C° 0 mm 3 mps 749 mmHg 40%
14:00 +22°C° 0 mm 3 mps 749 mmHg 37%
15:00 +22°C° 0 mm 3 mps 749 mmHg 40%
16:00 +22°C° 0 mm 3 mps 749 mmHg 43%
17:00 +21°C° 0 mm 2 mps 750 mmHg 47%
18:00 +20°C° 0 mm 2 mps 750 mmHg 56%
19:00 +19°C° 0 mm 1 mps 750 mmHg 64%
20:00 +16°C° 0 mm 1 mps 750 mmHg 73%
21:00 +15°C° 0 mm 1 mps 750 mmHg 76%
22:00 +14°C° 0 mm 1 mps 750 mmHg 78%
23:00 +13°C° 0 mm 1 mps 750 mmHg 80%

11 July, Saturday

Time Temperature Precipitation Wind Pressure Humidity
00:00 +13°C° 0 mm 1 mps 751 mmHg 83%
01:00 +12°C° 0 mm 1 mps 751 mmHg 85%
02:00 +12°C° 0 mm 2 mps 751 mmHg 87%
03:00 +13°C° 0 mm 2 mps 751 mmHg 85%
04:00 +13°C° 0 mm 2 mps 751 mmHg 84%
05:00 +14°C° 0 mm 2 mps 750 mmHg 83%
06:00 +16°C° 0 mm 3 mps 750 mmHg 76%
07:00 +18°C° 0 mm 4 mps 750 mmHg 69%
08:00 +20°C° 0 mm 4 mps 750 mmHg 63%
09:00 +21°C° 0 mm 5 mps 750 mmHg 59%
10:00 +22°C° 0 mm 5 mps 750 mmHg 55%
11:00 +25°C° 0 mm 5 mps 749 mmHg 51%
12:00 +25°C° 0 mm 5 mps 749 mmHg 54%
13:00 +25°C° 0 mm 4 mps 749 mmHg 57%
14:00 +25°C° 0 mm 4 mps 749 mmHg 59%
15:00 +25°C° 0 mm 4 mps 749 mmHg 61%
16:00 +23°C° 0 mm 4 mps 749 mmHg 64%
17:00 +23°C° 0 mm 4 mps 749 mmHg 66%
18:00 +22°C° 0.1 mm 4 mps 749 mmHg 73%
19:00 +21°C° 0.1 mm 3 mps 748 mmHg 79%
20:00 +20°C° 0.1 mm 2 mps 748 mmHg 86%
21:00 +19°C° 0.9 mm 2 mps 748 mmHg 90%
22:00 +19°C° 0.9 mm 2 mps 748 mmHg 94%
23:00 +18°C° 0.9 mm 2 mps 748 mmHg 98%

12 July, Sunday

Time Temperature Precipitation Wind Pressure Humidity
00:00 +18°C° 3.9 mm 2 mps 748 mmHg 98%
01:00 +17°C° 3.9 mm 2 mps 748 mmHg 97%
02:00 +16°C° 3.9 mm 2 mps 748 mmHg 97%
03:00 +16°C° 1.5 mm 1 mps 748 mmHg 97%
04:00 +15°C° 1.5 mm 1 mps 748 mmHg 97%
05:00 +15°C° 1.5 mm 1 mps 748 mmHg 97%
06:00 +15°C° 0.8 mm 1 mps 748 mmHg 97%
07:00 +15°C° 0.8 mm 1 mps 748 mmHg 96%
08:00 +15°C° 0.8 mm 1 mps 748 mmHg 96%
09:00 +15°C° 0.4 mm 1 mps 748 mmHg 96%
10:00 +15°C° 0.4 mm 1 mps 748 mmHg 96%
11:00 +15°C° 0.4 mm 1 mps 748 mmHg 96%
12:00 +15°C° 1.5 mm 1 mps 748 mmHg 96%
13:00 +15°C° 1.5 mm 1 mps 747 mmHg 97%
14:00 +14°C° 1.5 mm 1 mps 747 mmHg 98%
15:00 +14°C° 1.6 mm 1 mps 747 mmHg 98%
16:00 +14°C° 1.6 mm 1 mps 747 mmHg 98%
17:00 +13°C° 1.6 mm 1 mps 747 mmHg 98%
18:00 +13°C° 0.9 mm 1 mps 747 mmHg 98%
19:00 +12°C° 0.9 mm 0 mps 747 mmHg 98%
20:00 +12°C° 0.9 mm 0 mps 747 mmHg 98%
21:00 +12°C° 0.1 mm 0 mps 747 mmHg 98%
22:00 +12°C° 0.1 mm 1 mps 747 mmHg 98%
23:00 +12°C° 0.1 mm 1 mps 747 mmHg 98%
Show more